1505491201.03,54000,18.44,73658.3,0.37,-30.11,-25.75,0,*4E
1505491202.27,54001,18.44,73656.0,0.37,-30.01,-25.39,0,*46
1505491203.51,54002,18.44,73658.3,0.37,-30.17,-24.93,0,*43
1505491204.75,54003,18.44,73658.8,0.37,-29.79,-23.49,0,*42
1505491205.99,54004,18.44,73660.0,0.37,-28.43,-21.77,0,*42
1505491207.21,54005,18.44,73660.0,0.37,-27.55,-21.93,0,*41
1505491208.42,54006,18.44,73662.3,0.37,-27.71,-22.03,0,*4E
1505491209.68,54007,18.44,73662.0,0.35,-25.75,-19.57,0,*42
1505491210.89,54008,18.44,73664.3,0.35,-24.15,-17.73,0,*42
1505491212.11,54009,18.44,73666.3,0.35,-22.63,-17.79,0,*4E
1505491213.36,54010,18.44,73664.5,0.35,-22.31,-17.41,0,*4A
1505491214.58,54011,18.44,73668.8,0.35,-20.63,-15.57,0,*4B
1505491215.84,54012,18.44,73670.5,0.35,-19.27,-14.75,0,*43
1505491217.04,54013,18.44,73672.0,0.35,-19.51,-14.61,0,*46
1505491218.29,54014,18.44,73668.5,0.35,-19.65,-14.47,0,*42
1505491219.51,54015,18.44,73668.0,0.35,-18.31,-13.51,0,*43
1505491220.76,54016,18.44,73670.3,0.35,-17.55,-13.61,0,*4E
1505491221.97,54017,18.44,73670.0,0.35,-17.11,-13.51,0,*4C
1505491223.24,54018,18.44,73670.3,0.33,-15.85,-13.37,0,*4A
1505491224.48,54019,18.44,73668.8,0.35,-15.35,-13.37,0,*46
1505491225.67,54020,18.44,73674.0,0.35,-15.49,-13.47,0,*40
1505491226.88,54021,18.44,73670.0,0.35,-15.67,-13.87,0,*41
1505491228.12,54022,18.44,73668.3,0.35,-16.27,-15.21,0,*4F
1505491229.33,54023,18.44,73670.0,0.35,-18.65,-17.35,0,*41
1505491230.54,54024,18.44,73670.8,0.35,-20.19,-18.17,0,*49
1505491231.74,54025,18.44,73670.5,0.35,-19.07,-16.55,0,*45
1505491232.98,54026,18.44,73670.3,0.33,-17.93,-16.55,0,*43
1505491234.25,54027,18.44,73668.8,0.33,-17.97,-17.03,0,*44
1505491235.5,54028,18.44,73668.0,0.33,-18.35,-16.59,0,*42
1505491236.71,54029,18.44,73674.0,0.35,-18.01,-15.67,0,*4C
1505491237.96,54030,18.44,73670.3,0.35,-16.69,-15.21,0,*46
1505491239.21,54031,18.44,73672.3,0.33,-16.59,-14.97,0,*4E
1505491240.46,54032,18.44,73672.5,0.33,-16.69,-15.53,0,*47
1505491241.67,54033,18.44,73670.3,0.33,-18.11,-16.41,0,*47
1505491242.92,54034,18.44,73668.5,0.33,-18.83,-17.07,0,*48
1505491244.18,54035,18.44,73670.0,0.33,-19.17,-17.07,0,*45
1505491245.42,54036,18.44,73670.0,0.33,-17.97,-16.59,0,*4A
1505491246.67,54037,18.44,73670.0,0.31,-17.07,-15.81,0,*46
1505491247.9,54038,18.44,73672.8,0.31,-16.41,-15.39,0,*49
1505491249.1,54039,18.44,73672.5,0.31,-16.41,-15.99,0,*42
1505491250.32,54040,18.44,73668.3,0.31,-19.71,-18.89,0,*4C
1505491251.58,54041,18.44,73664.8,0.29,-20.79,-19.31,0,*44
1505491252.8,54042,18.44,73666.0,0.31,-21.83,-19.47,0,*4B
1505491254.04,54043,18.44,73666.3,0.29,-22.27,-19.31,0,*4F
1505491255.28,54044,18.44,73668.3,0.29,-21.87,-18.25,0,*45
1505491256.5,54045,18.44,73670.8,0.29,-21.63,-18.41,0,*4C
1505491257.73,54046,18.44,73666.0,0.29,-22.11,-18.59,0,*40
1505491259.0,54047,18.44,73674.0,0.29,-21.33,-17.41,0,*44
1505491260.24,54048,18.44,73672.5,0.29,-20.25,-17.25,0,*4F
1505491261.46,54049,18.44,73672.3,0.29,-20.69,-17.69,0,*4E
1505491262.68,54050,18.44,73670.0,0.29,-21.77,-18.73,0,*4C
1505491263.89,54051,18.44,73672.5,0.27,-21.97,-19.03,0,*4B
1505491265.11,54052,18.44,73670.0,0.27,-22.41,-18.93,0,*48
1505491266.35,54053,18.44,73672.5,0.27,-22.31,-18.89,0,*45
1505491267.58,54054,18.44,73670.8,0.27,-22.77,-19.17,0,*46
1505491268.78,54055,18.44,73670.8,0.27,-23.43,-19.37,0,*43
1505491270.01,54056,18.44,73670.3,0.29,-23.23,-19.07,0,*4B
1505491271.22,54057,18.44,73672.3,0.29,-22.83,-19.03,0,*45
1505491272.41,54058,18.44,73674.8,0.27,-22.83,-19.07,0,*40
1505491273.65,54059,18.44,73672.0,0.27,-23.29,-19.61,0,*40
1505491274.9,54060,18.44,73668.8,0.27,-23.53,-19.61,0,*47
1505491276.12,54061,18.44,73672.8,0.29,-23.59,-19.47,0,*46
1505491277.35,54062,18.44,73672.3,0.29,-23.69,-19.07,0,*42
1505491278.56,54063,18.44,73666.8,0.27,-23.89,-18.59,0,*49
1505491279.84,54064,18.44,73674.0,0.29,-22.73,-17.07,0,*40
1505491281.03,54065,18.44,73666.3,0.27,-21.77,-16.89,0,*4F
1505491282.23,54066,18.44,73670.8,0.27,-21.17,-16.75,0,*49
1505491283.45,54067,18.44,73670.0,0.27,-19.95,-16.23,0,*4A
1505491284.71,54068,18.44,73670.8,0.23,-19.27,-15.89,0,*4B
1505491285.94,54069,18.44,73670.8,0.27,-20.43,-16.23,0,*45
1505491287.16,54070,18.44,73668.8,0.27,-21.39,-16.17,0,*46
1505491288.39,54071,18.44,73670.0,0.27,-22.41,-17.07,0,*4B
1505491289.64,54072,18.44,73668.3,0.27,-22.77,-17.63,0,*4F
1505491290.88,54073,18.44,73664.8,0.27,-23.23,-17.63,0,*4E
1505491292.12,54074,18.44,73668.3,0.27,-23.23,-17.41,0,*49
1505491293.35,54075,18.44,73668.0,0.27,-23.09,-17.41,0,*40
1505491294.59,54076,18.44,73670.5,0.29,-23.23,-17.69,0,*4F
1505491295.86,54077,18.44,73668.5,0.29,-23.53,-18.01,0,*48
1505491297.1,54078,18.44,73666.8,0.29,-23.53,-18.25,0,*41
1505491298.34,54079,18.44,73670.8,0.29,-23.53,-18.25,0,*40
1505491299.59,54080,18.44,73668.0,0.29,-23.53,-18.17,0,*47
1505491300.86,54081,18.44,73670.8,0.29,-23.53,-18.01,0,*41
1505491302.13,54082,18.44,73670.0,0.29,-23.53,-18.01,0,*42
1505491303.38,54083,18.44,73666.8,0.29,-23.59,-18.01,0,*49
1505491304.62,54084,18.44,73668.8,0.31,-23.53,-17.63,0,*46
1505491305.84,54085,18.44,73668.8,0.29,-23.39,-17.69,0,*48
1505491307.06,54086,18.44,73668.0,0.29,-23.89,-17.83,0,*44
1505491308.31,54087,18.44,73670.8,0.29,-23.43,-17.63,0,*4D
1505491309.58,54088,18.44,73672.3,0.29,-23.29,-17.79,0,*45
1505491310.83,54089,18.44,73670.0,0.29,-23.43,-17.97,0,*48
1505491312.08,54090,18.44,73670.8,0.29,-23.09,-17.97,0,*4E
1505491313.28,54091,18.44,73668.5,0.27,-22.93,-17.87,0,*42
1505491314.48,54092,18.44,73668.0,0.27,-22.41,-17.69,0,*4E
1505491315.7,54093,18.44,73668.3,0.27,-21.47,-17.11,0,*45
1505491316.92,54094,18.44,73670.5,0.27,-21.77,-17.41,0,*44
1505491318.14,54095,18.44,73674.8,0.27,-22.11,-17.63,0,*46
1505491319.37,54096,18.44,73670.3,0.27,-22.27,-17.97,0,*4B
1505491320.58,54097,18.44,73668.3,0.27,-21.87,-18.25,0,*45
1505491321.8,54098,18.44,73670.8,0.27,-21.87,-18.83,0,*46
1505491323.02,54099,18.44,73670.3,0.27,-22.17,-19.07,0,*40
1505491324.21,54100,18.44,73666.5,0.23,-22.63,-19.13,0,*43
1505491325.42,54101,18.44,73662.8,0.27,-22.73,-19.07,0,*42
1505491326.62,54102,18.44,73662.8,0.27,-23.09,-18.73,0,*4F
1505491327.82,54103,18.44,73664.5,0.27,-23.09,-18.17,0,*4C
1505491329.06,54104,18.44,73664.0,0.29,-22.41,-17.21,0,*42
1505491330.3,54105,18.44,73662.3,0.31,-20.49,-15.85,0,*4C
1505491331.55,54106,18.44,73662.5,0.29,-18.25,-15.01,0,*4B
1505491332.78,54107,18.44,73664.3,0.29,-17.11,-13.69,0,*4A
1505491334.0,54108,18.44,73664.3,0.29,-15.63,-14.15,0,*4E
1505491335.25,54109,18.44,73664.3,0.29,-14.89,-14.83,0,*45
1505491336.44,54110,18.44,73668.8,0.31,-14.37,-14.29,0,*41
1505491337.64,54111,18.44,73666.5,0.31,-15.11,-15.29,0,*44
1505491338.89,54112,18.44,73668.0,0.31,-16.13,-16.17,0,*48
1505491340.11,54113,18.44,73666.5,0.31,-16.69,-14.65,0,*43
1505491341.34,54114,18.44,73666.0,0.31,-16.13,-15.71,0,*4D
1505491342.53,54115,18.44,73670.8,0.31,-18.11,-15.95,0,*4A
1505491343.75,54116,18.44,73668.8,0.31,-19.31,-17.31,0,*46
1505491344.97,54117,18.44,73668.8,0.31,-19.61,-16.93,0,*4B
1505491346.17,54118,18.44,73668.3,0.31,-19.47,-16.41,0,*4F
1505491347.41,54119,18.44,73666.0,0.33,-20.39,-17.97,0,*45
1505491348.61,54120,18.44,73668.0,0.35,-21.13,-17.87,0,*41
1505491349.82,54121,18.44,73666.5,0.33,-22.27,-18.41,0,*47
1505491351.05,54122,18.44,73666.0,0.31,-20.69,-17.97,0,*4A
1505491352.25,54123,18.44,73664.5,0.33,-22.11,-19.03,0,*47
1505491353.45,54124,18.44,73664.5,0.35,-21.73,-18.65,0,*40
1505491354.66,54125,18.44,73664.8,0.33,-21.77,-18.83,0,*4B
1505491355.9,54126,18.44,73664.8,0.33,-21.17,-18.55,0,*45
1505491357.14,54127,18.44,73666.8,0.33,-21.27,-17.73,0,*4C
1505491358.35,54128,18.44,73664.0,0.33,-18.49,-15.99,0,*47
1505491359.54,54129,18.44,73666.3,0.35,-17.31,-15.11,0,*40
1505491360.77,54130,18.44,73666.8,0.33,-16.41,-15.11,0,*48
1505491362.01,54131,18.44,73666.8,0.33,-17.35,-15.01,0,*4A
1505491363.22,54132,18.44,73666.5,0.35,-15.99,-14.05,0,*4E
1505491364.47,54133,18.44,73668.0,0.35,-15.81,-12.61,0,*42
1505491365.65,54134,18.44,73664.0,0.35,-12.89,-9.89,0,*76
1505491366.86,54135,18.44,73664.8,0.35,-10.79,-8.63,0,*7F
1505491368.05,54136,18.44,73666.3,0.35,-9.19,-8.93,0,*4D
1505491369.26,54137,18.44,73664.8,0.39,-9.53,-11.19,0,*74
1505491370.52,54138,18.44,73662.8,0.37,-10.79,-13.33,0,*4F
1505491371.79,54139,18.44,73666.5,0.37,-11.07,-11.63,0,*41
1505491373.03,54140,18.44,73666.3,0.39,-10.75,-13.01,0,*43
1505491374.27,54141,18.38,73660.5,0.41,-11.23,-12.83,0,*44
1505491375.51,54142,18.44,73664.5,0.41,-12.83,-13.51,0,*40
1505491376.74,54143,18.44,73662.8,0.41,-13.29,-12.93,0,*4F
1505491378.01,54144,18.44,73668.0,0.41,-12.53,-12.79,0,*40
1505491379.28,54145,18.44,73666.0,0.41,-12.07,-14.01,0,*49
1505491380.54,54146,18.44,73668.0,0.41,-13.79,-16.27,0,*44
1505491381.73,54147,18.44,73662.3,0.43,-17.49,-19.91,0,*42
1505491382.95,54148,18.44,73662.0,0.43,-19.65,-21.13,0,*4C
1505491384.13,54149,18.44,73658.0,0.43,-20.73,-21.47,0,*41
1505491385.37,54150,18.44,73658.5,0.41,-21.43,-21.83,0,*41
1505491386.61,54151,18.38,73654.3,0.41,-21.77,-21.97,0,*42
1505491387.82,54152,18.44,73658.5,0.43,-21.57,-21.63,0,*4A
1505491389.06,54153,18.44,73656.8,0.43,-21.97,-21.67,0,*43
1505491390.25,54154,18.44,73654.8,0.43,-22.37,-22.57,0,*4D
1505491391.49,54155,18.44,73658.5,0.41,-22.21,-22.27,0,*4E
1505491392.73,54156,18.44,73664.5,0.41,-20.89,-20.53,0,*4C
1505491393.98,54157,18.44,73662.5,0.41,-19.95,-20.19,0,*44
1505491395.23,54158,18.44,73662.8,0.41,-20.49,-21.97,0,*47
1505491396.47,54159,18.44,73662.8,0.41,-22.11,-23.19,0,*4D
1505491397.7,54160,18.44,73662.8,0.41,-22.87,-23.53,0,*46
1505491398.97,54161,18.44,73662.3,0.41,-22.77,-23.53,0,*48
1505491400.16,54162,18.44,73662.0,0.39,-22.57,-23.79,0,*4E
1505491401.35,54163,18.44,73664.8,0.39,-22.67,-24.05,0,*40
1505491402.54,54164,18.44,73666.5,0.39,-22.11,-23.59,0,*48
1505491403.75,54165,18.44,73664.5,0.39,-21.97,-24.05,0,*4A
1505491404.97,54166,18.38,73660.3,0.39,-22.27,-24.41,0,*41
1505491406.22,54167,18.38,73662.8,0.39,-22.17,-24.21,0,*45
1505491407.46,54168,18.44,73666.5,0.41,-22.37,-24.87,0,*4B
1505491408.7,54169,18.44,73664.8,0.39,-21.97,-24.67,0,*42
1505491409.89,54170,18.44,73670.0,0.39,-21.73,-24.05,0,*44
1505491411.13,54171,18.44,73670.3,0.39,-21.87,-24.67,0,*4A
1505491412.35,54172,18.44,73668.8,0.39,-22.63,-25.55,0,*40
1505491413.58,54173,18.44,73670.3,0.39,-22.93,-25.75,0,*4C
1505491414.81,54174,18.44,73672.8,0.41,-22.63,-25.81,0,*40
1505491416.08,54175,18.44,73672.3,0.41,-23.23,-26.29,0,*45
1505491417.29,54176,18.44,73670.3,0.43,-23.39,-26.33,0,*44
1505491418.52,54177,18.44,73670.5,0.41,-23.69,-26.45,0,*43
1505491419.78,54178,18.44,73668.5,0.41,-24.15,-26.81,0,*48
1505491421.0,54179,18.44,73666.8,0.41,-24.35,-26.87,0,*4D
1505491422.24,54180,18.44,73666.8,0.41,-24.47,-26.97,0,*4F
1505491423.46,54181,18.44,73666.0,0.39,-24.35,-26.93,0,*40
1505491424.69,54182,18.44,73666.5,0.39,-23.95,-27.03,0,*46
1505491425.9,54183,18.44,73668.3,0.39,-22.97,-26.55,0,*46
1505491427.12,54184,18.44,73672.3,0.39,-22.93,-26.93,0,*4F
1505491428.31,54185,18.44,73666.3,0.39,-22.63,-26.49,0,*46
1505491429.53,54186,18.44,73670.0,0.43,-23.19,-26.03,0,*4A
1505491430.77,54187,18.38,73666.8,0.41,-24.15,-26.87,0,*4E
1505491432.01,54188,18.44,73670.5,0.41,-24.21,-27.29,0,*43
1505491433.23,54189,18.44,73668.3,0.41,-24.61,-27.51,0,*49
1505491434.45,54190,18.44,73670.0,0.43,-24.51,-27.19,0,*4C
1505491435.64,54191,18.44,73664.0,0.43,-24.35,-27.67,0,*46
1505491436.89,54192,18.44,73670.8,0.41,-24.71,-27.67,0,*47
1505491438.13,54193,18.44,73664.8,0.41,-25.35,-28.05,0,*4C
1505491439.37,54194,18.44,73664.3,0.41,-25.35,-28.05,0,*4B
1505491440.63,54195,18.44,73666.5,0.41,-25.45,-27.99,0,*47
1505491441.84,54196,18.44,73666.8,0.41,-25.49,-27.89,0,*49
1505491443.08,54197,18.44,73666.5,0.43,-25.45,-27.99,0,*47
1505491444.3,54198,18.44,73668.3,0.43,-25.65,-27.99,0,*4A
1505491445.5,54199,18.44,73672.0,0.41,-25.61,-27.77,0,*4D
1505491446.71,54200,18.44,73670.3,0.43,-25.45,-27.67,0,*4B
1505491447.98,54201,18.44,73668.5,0.41,-25.71,-27.99,0,*4E
1505491449.2,54202,18.38,73664.0,0.43,-26.45,-28.63,0,*41
1505491450.41,54203,18.44,73668.3,0.41,-26.61,-28.69,0,*4E
1505491451.66,54204,18.44,73664.0,0.41,-26.49,-28.63,0,*49
1505491452.9,54205,18.44,73664.3,0.43,-26.77,-28.79,0,*4C
1505491454.13,54206,18.44,73662.0,0.43,-26.77,-28.79,0,*4F
1505491455.38,54207,18.44,73662.3,0.41,-26.77,-28.69,0,*4D
1505491456.57,54208,18.44,73660.3,0.43,-26.65,-28.53,0,*4A
1505491457.79,54209,18.44,73666.0,0.43,-26.49,-28.63,0,*46
1505491458.98,54210,18.44,73662.8,0.43,-26.45,-28.37,0,*43
1505491460.22,54211,18.44,73660.3,0.41,-26.81,-28.53,0,*4A
1505491461.44,54212,18.44,73662.0,0.43,-26.81,-28.53,0,*4B
1505491462.63,54213,18.44,73664.8,0.43,-26.61,-28.37,0,*46
1505491463.82,54214,18.44,73664.0,0.43,-26.45,-28.37,0,*47
1505491465.06,54215,18.44,73666.8,0.43,-26.33,-27.99,0,*4C
1505491466.26,54216,18.44,73670.0,0.43,-26.49,-28.15,0,*49
1505491467.47,54217,18.44,73668.5,0.41,-26.87,-28.53,0,*4A
1505491468.69,54218,18.38,73664.3,0.41,-26.65,-28.15,0,*4B
1505491469.92,54219,18.44,73670.5,0.43,-26.33,-28.15,0,*4B
1505491471.17,54220,18.44,73668.8,0.43,-26.33,-27.99,0,*4A
1505491472.4,54221,18.44,73668.0,0.43,-26.13,-27.19,0,*41
1505491473.65,54222,18.44,73666.5,0.43,-26.17,-27.61,0,*49
1505491474.86,54223,18.44,73668.0,0.43,-26.13,-27.51,0,*4F
1505491476.1,54224,18.44,73664.5,0.45,-26.29,-27.45,0,*42
1505491477.31,54225,18.44,73668.3,0.45,-25.45,-26.61,0,*4D
1505491478.56,54226,18.44,73670.0,0.47,-25.55,-26.61,0,*4D
1505491479.79,54227,18.38,73664.5,0.45,-25.45,-26.71,0,*4E
1505491481.06,54228,18.44,73664.5,0.47,-25.75,-26.93,0,*4C
1505491482.28,54229,18.44,73666.8,0.45,-25.65,-26.77,0,*44
1505491483.52,54230,18.44,73666.3,0.45,-25.45,-25.97,0,*43
1505491484.75,54231,18.44,73664.8,0.45,-24.47,-26.13,0,*4E
1505491485.97,54232,18.38,73662.0,0.45,-25.13,-26.55,0,*4F
1505491487.18,54233,18.44,73660.8,0.47,-24.93,-26.45,0,*44
1505491488.4,54234,18.44,73662.3,0.47,-25.61,-26.07,0,*49
1505491489.65,54235,18.38,73658.5,0.47,-24.25,-24.47,0,*4F
1505491490.89,54236,18.44,73664.8,0.47,-23.65,-24.77,0,*4C
1505491492.11,54237,18.38,73660.8,0.47,-23.43,-25.13,0,*4A
1505491493.33,54238,18.44,73666.0,0.51,-23.39,-25.09,0,*44
1505491494.54,54239,18.44,73668.0,0.51,-23.39,-25.19,0,*44
1505491495.79,54240,18.44,73664.0,0.47,-23.19,-25.39,0,*4D
1505491497.01,54241,18.44,73662.0,0.51,-23.09,-24.77,0,*41
1505491498.22,54242,18.44,73666.3,0.51,-22.63,-24.35,0,*49
1505491499.46,54243,18.44,73670.8,0.53,-22.47,-25.03,0,*48
1505491500.71,54244,18.44,73668.8,0.51,-23.39,-25.75,0,*44
1505491501.92,54245,18.44,73660.8,0.53,-23.53,-25.19,0,*41
1505491503.14,54246,18.44,73654.8,0.51,-23.79,-24.93,0,*4B
1505491504.38,54247,18.44,73662.5,0.55,-21.77,-23.33,0,*4F
1505491505.62,54248,18.44,73660.0,0.51,-22.27,-24.71,0,*43
1505491506.83,54249,18.44,73668.8,0.53,-20.89,-24.11,0,*40
1505491508.02,54250,18.44,73672.3,0.53,-21.73,-25.23,0,*4C
1505491509.27,54251,18.44,73664.5,0.51,-22.67,-25.71,0,*4E
1505491510.49,54252,18.44,73662.8,0.51,-23.09,-26.49,0,*4C
1505491511.7,54253,18.44,73662.0,0.53,-22.67,-25.75,0,*4A
1505491512.89,54254,18.44,73656.8,0.53,-22.63,-25.23,0,*4A
1505491514.1,54255,18.44,73666.3,0.53,-21.73,-24.87,0,*46
1505491515.35,54256,18.44,73668.5,0.51,-21.53,-24.35,0,*4C
1505491516.61,54257,18.44,73668.5,0.51,-19.57,-23.53,0,*45
1505491517.83,54258,18.38,73666.3,0.53,-21.23,-25.23,0,*41
1505491519.01,54259,18.44,73664.3,0.53,-22.11,-25.87,0,*4C
1505491520.25,54260,18.44,73662.8,0.53,-20.49,-24.11,0,*47
1505491521.46,54261,18.44,73660.3,0.51,-22.03,-25.91,0,*41
1505491522.73,54262,18.44,73660.8,0.51,-22.17,-25.75,0,*4D
1505491523.98,54263,18.44,73662.0,0.51,-21.23,-24.77,0,*4B
1505491525.17,54264,18.38,73662.3,0.53,-21.39,-25.61,0,*43
1505491526.4,54265,18.44,73666.0,0.51,-20.43,-22.97,0,*42
1505491527.59,54266,18.44,73664.5,0.53,-18.45,-22.63,0,*45
1505491528.81,54267,18.44,73666.8,0.51,-18.65,-22.97,0,*4F
1505491530.0,54268,18.38,73658.0,0.53,-19.51,-22.53,0,*4C
1505491531.24,54269,18.44,73660.3,0.53,-18.93,-22.77,0,*44
1505491532.48,54270,18.44,73664.5,0.53,-18.01,-21.53,0,*42
1505491533.67,54271,18.44,73666.3,0.53,-17.83,-22.63,0,*46
1505491534.87,54272,18.44,73660.8,0.53,-18.41,-23.09,0,*49
1505491536.08,54273,18.44,73666.5,0.53,-19.23,-23.75,0,*46
1505491537.33,54274,18.38,73660.0,0.55,-19.31,-22.27,0,*42
1505491538.54,54275,18.44,73668.5,0.55,-18.07,-21.63,0,*44
1505491539.76,54276,18.44,73666.5,0.55,-16.79,-19.91,0,*46
1505491540.97,54277,18.44,73664.5,0.57,-16.79,-21.53,0,*40
1505491542.16,54278,18.44,73664.5,0.57,-17.49,-20.69,0,*45
1505491543.42,54279,18.44,73662.5,0.59,-17.79,-20.99,0,*46
1505491544.61,54280,18.44,73668.8,0.57,-18.49,-21.63,0,*46
1505491545.83,54281,18.44,73670.8,0.59,-17.87,-20.93,0,*4A
1505491547.04,54282,18.38,73666.8,0.59,-17.31,-22.07,0,*4B
1505491548.25,54283,18.38,73666.8,0.59,-17.73,-22.83,0,*40
1505491549.46,54284,18.44,73666.8,0.61,-18.17,-22.77,0,*4A
1505491550.73,54285,18.44,73670.8,0.59,-17.55,-20.99,0,*4B
1505491551.92,54286,18.38,73666.5,0.61,-16.55,-21.73,0,*47
1505491553.13,54287,18.44,73668.5,0.59,-17.31,-22.67,0,*48
1505491554.34,54288,18.38,73664.5,0.59,-16.97,-21.09,0,*41
1505491555.57,54289,18.44,73668.8,0.63,-16.55,-20.89,0,*4E
1505491556.81,54290,18.44,73668.0,0.63,-17.97,-22.83,0,*41
1505491558.03,54291,18.44,73672.0,0.61,-16.17,-20.09,0,*4B
1505491559.26,54292,18.44,73666.8,0.63,-17.25,-21.73,0,*46
1505491560.5,54293,18.44,73668.3,0.59,-16.51,-20.05,0,*4C
1505491561.74,54294,18.44,73666.5,0.63,-15.81,-19.95,0,*4F
1505491562.95,54295,18.38,73670.5,0.61,-15.01,-16.93,0,*4D
1505491564.16,54296,18.44,73672.3,0.61,-14.65,-17.97,0,*48
1505491565.41,54297,18.38,73668.5,0.63,-15.01,-18.89,0,*48
1505491566.63,54298,18.44,73670.8,0.63,-14.33,-17.73,0,*4D
1505491567.84,54299,18.44,73668.0,0.63,-14.89,-19.17,0,*41
1505491569.08,54300,18.44,73668.0,0.63,-14.61,-18.31,0,*43
1505491570.32,54301,18.44,73672.5,0.63,-13.43,-16.65,0,*4A
1505491571.54,54302,18.44,73672.3,0.65,-13.83,-18.21,0,*4D
1505491572.71,54303,18.44,73668.5,0.65,-15.07,-19.07,0,*43
1505491573.98,54304,18.44,73672.0,0.67,-15.43,-19.31,0,*43
1505491575.23,54305,18.44,73670.8,0.67,-16.27,-20.43,0,*4C
1505491576.42,54306,18.44,73668.8,0.65,-16.79,-19.91,0,*43
1505491577.61,54307,18.38,73670.3,0.65,-15.75,-18.07,0,*43
1505491578.83,54308,18.44,73672.0,0.65,-13.55,-16.17,0,*47
1505491580.05,54309,18.44,73670.5,0.67,-15.25,-19.95,0,*40
1505491581.29,54310,18.38,73670.0,0.67,-15.11,-17.03,0,*4E
1505491582.53,54311,18.44,73672.8,0.67,-14.61,-19.61,0,*43
1505491583.78,54312,18.38,73670.8,0.67,-16.41,-20.53,0,*4B
1505491585.0,54313,18.44,73672.5,0.69,-17.03,-19.91,0,*47
1505491586.18,54314,18.38,73670.3,0.69,-18.83,-23.79,0,*48
1505491587.43,54315,18.44,73668.5,0.69,-19.27,-23.65,0,*4B
1505491588.62,54316,18.44,73668.3,0.73,-19.07,-24.47,0,*46
1505491589.84,54317,18.44,73668.3,0.69,-19.07,-23.19,0,*40
1505491591.05,54318,18.38,73666.5,0.69,-20.79,-25.91,0,*4A
1505491592.24,54319,18.44,73668.3,0.69,-21.09,-26.07,0,*41
1505491593.51,54320,18.44,73660.0,0.67,-20.99,-25.29,0,*42
1505491594.7,54321,18.38,73656.0,0.69,-20.93,-25.49,0,*41
1505491595.94,54322,18.44,73658.8,0.69,-20.53,-24.83,0,*49
1505491597.15,54323,18.38,73660.3,0.73,-19.91,-24.15,0,*48
1505491598.36,54324,18.44,73664.0,0.69,-18.99,-23.53,0,*48
1505491599.55,54325,18.44,73662.5,0.69,-18.49,-23.13,0,*40
1505491600.79,54326,18.44,73662.5,0.69,-18.93,-23.99,0,*46
1505491602.02,54327,18.44,73666.0,0.73,-19.41,-24.11,0,*45
1505491603.24,54328,18.44,73668.0,0.69,-19.57,-23.79,0,*4F
1505491604.45,54329,18.38,73668.3,0.73,-18.45,-22.77,0,*48
1505491605.65,54330,18.44,73668.8,0.77,-18.25,-22.03,0,*41
1505491606.85,54331,18.44,73674.3,0.73,-18.59,-23.89,0,*4C
1505491608.07,54332,18.38,73676.3,0.73,-18.65,-21.87,0,*4C
1505491609.29,54333,18.38,73674.5,0.77,-19.03,-23.29,0,*4E
1505491610.53,54334,18.44,73678.0,0.73,-18.31,-21.57,0,*46
1505491611.75,54335,18.44,73678.3,0.77,-18.59,-21.39,0,*45
1505491612.98,54336,18.44,73682.3,0.77,-18.99,-24.21,0,*46
1505491614.2,54337,18.44,73676.0,0.77,-22.07,-26.33,0,*48
1505491615.45,54338,18.38,73668.3,0.77,-23.19,-27.19,0,*40
1505491616.67,54339,18.44,73674.5,0.73,-23.23,-27.07,0,*43
1505491617.9,54340,18.38,73672.3,0.77,-23.03,-26.03,0,*4E
1505491619.11,54341,18.44,73670.3,0.73,-22.37,-24.41,0,*49
1505491620.33,54342,18.44,73668.8,0.77,-21.97,-25.39,0,*49
1505491621.58,54343,18.44,73668.8,0.77,-23.23,-26.13,0,*4E
1505491622.8,54344,18.44,73670.3,0.73,-23.13,-26.17,0,*4A
1505491624.01,54345,18.38,73666.8,0.73,-23.23,-26.39,0,*44
1505491625.22,54346,18.44,73668.0,0.77,-23.43,-26.65,0,*4C
1505491626.43,54347,18.38,73664.8,0.73,-23.75,-26.77,0,*4F
1505491627.67,54348,18.44,73662.0,0.73,-23.65,-26.71,0,*47
1505491628.9,54349,18.44,73662.0,0.77,-23.99,-26.65,0,*44
1505491630.15,54350,18.44,73660.5,0.77,-23.99,-26.81,0,*46
1505491631.39,54351,18.44,73660.0,0.73,-24.21,-26.93,0,*44
1505491632.61,54352,18.44,73664.5,0.73,-24.41,-27.07,0,*4D
1505491633.85,54353,18.44,73664.5,0.73,-24.21,-26.77,0,*4C
1505491635.07,54354,18.44,73664.5,0.77,-24.15,-26.65,0,*4B
1505491636.3,54355,18.44,73664.8,0.77,-24.11,-26.49,0,*40
1505491637.51,54356,18.38,73664.3,0.73,-23.95,-26.45,0,*40
1505491638.76,54357,18.44,73662.8,0.77,-24.21,-26.71,0,*4A
1505491639.95,54358,18.44,73666.3,0.73,-24.05,-26.07,0,*46
1505491641.21,54359,18.44,73664.5,0.77,-23.99,-25.03,0,*46
1505491642.46,54360,18.44,73664.0,0.77,-22.17,-23.53,0,*48
1505491643.64,54361,18.44,73664.3,0.77,-22.07,-24.35,0,*4F
1505491644.88,54362,18.44,73664.5,0.73,-23.33,-25.45,0,*48
1505491646.1,54363,18.44,73666.8,0.73,-24.47,-26.33,0,*4F
1505491647.35,54364,18.44,73666.5,0.77,-24.67,-26.55,0,*4E
1505491648.61,54365,18.44,73664.8,0.77,-24.25,-26.17,0,*4F
1505491649.84,54366,18.44,73664.3,0.77,-24.05,-25.71,0,*4D
1505491651.12,54367,18.44,73664.0,0.79,-23.99,-26.13,0,*47
1505491652.34,54368,18.44,73666.8,0.73,-23.95,-26.03,0,*4F
1505491653.55,54369,18.44,73666.8,0.77,-23.43,-25.35,0,*47
1505491654.79,54370,18.44,73666.5,0.77,-23.23,-24.83,0,*45
1505491656.0,54371,18.38,73660.8,0.73,-23.89,-25.45,0,*4B
1505491657.26,54372,18.44,73662.3,0.77,-24.21,-25.97,0,*46
1505491658.51,54373,18.44,73662.3,0.77,-24.87,-26.29,0,*4D
1505491659.77,54374,18.44,73662.3,0.73,-24.25,-25.55,0,*4E
1505491661.02,54375,18.44,73662.8,0.73,-24.21,-25.71,0,*4D
1505491662.21,54376,18.38,73660.0,0.77,-23.89,-25.35,0,*4F
1505491663.43,54377,18.44,73662.8,0.73,-24.05,-25.29,0,*44
1505491664.63,54378,18.38,73660.3,0.73,-24.47,-25.39,0,*4C
1505491665.86,54379,18.44,73662.8,0.73,-24.21,-23.95,0,*4D
1505491667.08,54380,18.44,73664.5,0.73,-24.61,-25.29,0,*4E
1505491668.29,54381,18.44,73664.0,0.73,-25.03,-24.57,0,*42
1505491669.49,54382,18.44,73664.5,0.73,-23.89,-23.95,0,*4C
1505491670.73,54383,18.44,73666.0,0.69,-23.33,-23.53,0,*4D
1505491671.95,54384,18.44,73664.5,0.69,-23.99,-24.61,0,*4C
1505491673.16,54385,18.44,73664.8,0.69,-24.83,-24.61,0,*41
1505491674.41,54386,18.44,73668.3,0.69,-24.11,-23.33,0,*49
1505491675.65,54387,18.44,73664.8,0.67,-24.87,-25.87,0,*40
1505491676.92,54388,18.44,73666.3,0.67,-25.03,-25.55,0,*4D
1505491678.2,54389,18.44,73670.5,0.67,-24.71,-25.29,0,*43
1505491679.46,54390,18.44,73668.3,0.67,-24.87,-24.83,0,*43
1505491680.73,54391,18.44,73664.0,0.67,-24.83,-24.21,0,*4E
1505491681.99,54392,18.44,73664.5,0.67,-24.71,-25.13,0,*40
1505491683.2,54393,18.44,73670.8,0.65,-23.59,-24.15,0,*49
1505491684.42,54394,18.44,73666.8,0.65,-22.57,-21.27,0,*45
1505491685.68,54395,18.44,73670.3,0.63,-22.31,-21.97,0,*49
1505491686.93,54396,18.44,73670.5,0.65,-22.47,-22.47,0,*43
1505491688.17,54397,18.44,73668.3,0.65,-23.03,-21.97,0,*4D
1505491689.38,54398,18.44,73672.5,0.65,-23.75,-22.73,0,*4A
1505491690.57,54399,18.44,73670.3,0.65,-23.59,-22.11,0,*41
1505491691.82,54400,18.44,73672.8,0.67,-21.93,-20.99,0,*42
1505491693.03,54401,18.44,73672.0,0.65,-20.53,-19.91,0,*4E
1505491694.26,54402,18.38,73672.3,0.67,-18.73,-18.59,0,*43
1505491695.47,54403,18.44,73672.0,0.65,-19.75,-23.53,0,*45
1505491696.74,54404,18.44,73672.3,0.63,-23.19,-25.71,0,*41
1505491697.95,54405,18.38,73670.3,0.65,-23.43,-24.67,0,*4F
1505491699.18,54406,18.44,73668.5,0.63,-24.35,-25.61,0,*4B